EW9559 Weather Reports


Display with metric or nautical units.
time (UTC)temp
F
wind
direction
speed
MPH
gust
MPH
rain 1hr
in
rain 24hr
in
rain mn
in
humidity
%
barometer
mb
20260901021530 70 268 1.0 3.0 0.00 0.00 0.00 45 1011.2
20260901013031 73 270 0.0 0.0 0.00 0.00 0.00 46 1011.3
20260901011528 75 270 0.0 0.0 0.00 0.00 0.00 45 1011.4
20260901010030 76 270 0.0 0.0 0.00 0.00 0.00 45 1011.5
20260901004529 78 270 0.0 0.0 0.00 0.00 0.00 46 1011.6
20260901003033 82 270 0.0 0.0 0.00 0.00 0.00 38 1011.8
20260901000031 89 270 0.0 0.0 0.00 0.00 0.00 34 1012.0
20260831234529 88 270 0.0 0.0 0.00 0.00 0.00 32 1012.2
20260831233110 89 283 0.0 0.0 0.00 0.00 0.00 31 1012.4
20260831231529 91 234 0.0 2.0 0.00 0.00 0.00 29 1012.6
20260831230106 90 202 0.0 1.0 0.00 0.00 0.00 30 1012.8
20260831223029 86 198 0.0 1.0 0.00 0.00 0.00 30 1013.2
20260831221531 86 202 0.0 4.0 0.00 0.00 0.00 32 1013.4
20260831220031 84 179 0.0 2.0 0.00 0.00 0.00 34 1013.5
20260831214530 83 191 0.0 4.0 0.00 0.00 0.00 34 1013.9
20260831213030 82 164 0.0 4.0 0.00 0.00 0.00 35 1014.1
20260831211532 81 162 0.0 5.0 0.00 0.00 0.00 35 1014.3
20260831210029 81 147 0.0 4.0 0.00 0.00 0.00 35 1014.5
20260831204606 81 135 0.0 4.0 0.00 0.00 0.00 36 1014.6
20260831203031 80 147 0.0 7.0 0.00 0.00 0.00 38 1014.9
20260831200031 80 6 0.0 5.0 0.00 0.00 0.00 39 1015.6
20260831193029 76 38 1.0 5.0 0.00 0.00 0.00 42 1016.0
20260831191532 76 357 0.0 4.0 0.00 0.00 0.00 44 1016.4
20260831190029 75 338 0.0 6.0 0.00 0.00 0.00 46 1016.7
20260831184527 74 337 0.0 4.0 0.00 0.00 0.00 47 1016.9
20260831181532 72 319 0.0 4.0 0.00 0.00 0.00 54 1017.4
20260831173032 69 339 0.0 4.0 0.00 0.00 0.00 59 1017.7
20260831171532 69 324 0.0 2.0 0.00 0.00 0.00 59 1017.8
20260831170032 67 292 0.0 0.0 0.00 0.00 0.00 59 1018.0
20260831164607 68 292 0.0 0.0 0.00 0.00 0.00 56 1018.2
20260831163101 71 283 0.0 0.0 0.00 0.00 0.00 53 1018.3
20260831161700 0 0 0.0 0.0 0.00 0.00 0.00 100
20260831160124 0 0 0.0 0.0 0.00 0.00 0.00 100
20260831151530 57 235 0.0 1.0 0.00 0.00 0.00 84 1018.6
20260831143028 51 247 0.0 1.0 0.00 0.00 0.00 93 1018.4
20260831141528 49 247 0.0 1.0 0.00 0.00 0.00 93 1018.3
20260831134607 48 247 0.0 1.0 0.00 0.00 0.00 91 1018.2
20260831133032 49 247 0.0 1.0 0.00 0.00 0.00 91 1018.2
20260831130029 49 247 0.0 1.0 0.00 0.00 0.00 90 1018.2
20260831124535 49 247 0.0 1.0 0.00 0.00 0.00 90 1018.3
20260831121529 49 247 0.0 1.0 0.00 0.00 0.00 89 1018.2
20260831120028 50 247 0.0 1.0 0.00 0.00 0.00 88 1018.2
20260831114602 50 247 0.0 1.0 0.00 0.00 0.00 88 1018.3
20260831111526 50 247 0.0 1.0 0.00 0.00 0.00 88 1018.3
20260831104531 51 247 0.0 1.0 0.00 0.00 0.00 88 1018.3
20260831103029 51 247 0.0 1.0 0.00 0.00 0.00 87 1018.4
20260831101529 51 247 0.0 1.0 0.00 0.00 0.00 86 1018.4
20260831094532 52 247 0.0 1.0 0.00 0.00 0.00 85 1018.7
20260831093029 52 247 0.0 2.0 0.00 0.00 0.00 84 1018.8
20260831090146 53 247 0.0 1.0 0.00 0.00 0.00 82 1018.8
20260831083032 54 261 0.0 2.0 0.00 0.00 0.00 81 1019.0
20260831081530 54 270 0.0 1.0 0.00 0.00 0.00 80 1019.1
20260831080030 55 270 0.0 1.0 0.00 0.00 0.00 79 1019.1
20260831074601 55 270 0.0 2.0 0.00 0.00 0.00 79 1019.2
20260831073031 55 256 0.0 2.0 0.00 0.00 0.00 79 1019.2
20260831071530 55 245 0.0 3.0 0.00 0.00 0.00 79 1019.3
20260831070026 55 247 0.0 2.0 0.00 0.00 0.00 79 1019.4
20260831064532 56 247 0.0 2.0 0.00 0.00 0.00 78 1019.3
20260831063031 56 247 0.0 1.0 0.00 0.00 0.00 76 1019.5
20260831061603 57 247 0.0 1.0 0.00 0.00 0.00 76 1019.6
20260831060032 57 247 0.0 1.0 0.00 0.00 0.00 76 1019.5
20260831054530 57 247 0.0 1.0 0.00 0.00 0.00 76 1019.6
20260831053031 57 247 0.0 1.0 0.00 0.00 0.00 73 1019.8
20260831051529 58 247 0.0 1.0 0.00 0.00 0.00 72 1019.7
20260831050030 59 247 0.0 2.0 0.00 0.00 0.00 70 1019.7
20260831044528 60 247 0.0 1.0 0.00 0.00 0.00 67 1019.7
20260831043030 61 247 0.0 2.0 0.00 0.00 0.00 65 1019.7
20260831041607 62 247 0.0 2.0 0.00 0.00 0.00 64 1019.7
20260831040031 63 247 0.0 2.0 0.00 0.00 0.00 62 1019.6
20260831033029 64 261 0.0 6.0 0.00 0.00 0.00 60 1019.2
20260831031531 64 269 0.0 6.0 0.00 0.00 0.00 59 1019.1
20260831030103 65 267 0.0 4.0 0.00 0.00 0.00 58 1019.1
20260831024602 65 261 0.0 6.0 0.00 0.00 0.00 56 1019.1
20260831023102 66 260 0.0 5.0 0.00 0.00 0.00 54 1019.2